Regional Weather Roundup
Issued by NWS

Home | Current Version | Previous Version | Graphics & Text | Print | Product List | Glossary On
Versions: 1 2 3 4 5 6 7 8 9 10 11 12 13 14 15 16 17 18 19 20 21 22 23 24 25 26 27 28 29 30 31 32 33 34 35 36 37 38 39 40 41 42 43 44 45 46 47 48 49 50
000
ASUS43 KLSX 110757
RWRMO

WEATHER SUMMARY FOR MISSOURI
NATIONAL WEATHER SERVICE SPRINGFIELD MO
200 AM CST THU FEB 11 2016

NOTE: "FAIR" INDICATES FEW OR NO CLOUDS BELOW 12,000 FEET WITH NO
       SIGNIFICANT WEATHER AND/OR OBSTRUCTIONS TO VISIBILITY.
       CURRENT SKY AND/OR WEATHER CONDITIONS ARE NOT AVAILABLE FOR
       CHILLICOTHE AND FARMINGTON.

MOZ001>031-035>038-043-044-053-054-110900-
...NORTHERN AND WESTERN MISSOURI...

CITY           SKY/WX    TMP DP  RH WIND       PRES   REMARKS
KANSAS CTY INT MOCLDY    24  20  84 NE10      30.13R WCI  14
LEE`S SUMMIT   PTCLDY    24  20  84 NE16      30.12R WCI  11
ST JOSEPH      PTCLDY    25  19  78 NE10      30.17S WCI  15
CHILLICOTHE      N/A     24  18  77 NE7       30.18S WCI  16

$$
MOZ066>068-077>081-088>096-101>105-110900-
...SOUTHWEST MISSOURI...

CITY           SKY/WX    TMP DP  RH WIND       PRES   REMARKS
SPRINGFIELD    CLEAR     31  17  56 SE8       29.98S WCI  23
JOPLIN         PTCLDY    34  23  64 NE6       29.98R WCI  29

$$
MOZ032>034-039>042-045>050-055>058-069>072-110900-
...CENTRAL MISSOURI...

CITY           SKY/WX    TMP DP  RH WIND       PRES   REMARKS
COLUMBIA       NOT AVBL
JEFFERSON CITY CLOUDY    26  19  74 E8        30.14R WCI  18
ROLLA          MOCLDY    21  17  84 NE8       30.07R WCI  11
SEDALIA        MOCLDY    25  19  78 NE9       30.13R WCI  15

$$
MOZ051-052-059>065-110900-
...EAST CENTRAL MISSOURI...

CITY           SKY/WX    TMP DP  RH WIND       PRES   REMARKS
ST LOUIS INTL  CLOUDY    24  18  77 NE3       30.17R

$$
MOZ072>076-082>087-097>100-106>115-110900-
...SOUTH CENTRAL AND SOUTHEAST MISSOURI...

CITY           SKY/WX    TMP DP  RH WIND       PRES   REMARKS
CAPE GIRARDEAU CLOUDY    23  19  85 E5        30.13F WCI  17
POPLAR BLUFF   CLOUDY    23  18  81 NE3       30.09F
WEST PLAINS    CLOUDY    24   9  52 E5        30.04F WCI  18

$$


USA.gov is the U.S. government's official web portal to all federal, state and local government web resources and services.